Simultaneous Nadir Overpasses (SNOs) Predictions

Prediction of SNOs between AQUA and METOP-A Satellite Orbit:

Table of predicted SNOs for the next 14.0 days since TLE Epoch: 6/22/2012
Index Date (AQUA) Time (AQUA) AQUA Lat,Lon Date (METOP-A) Time (METOP-A) METOP-A Lat,Lon Distance(km) Time Diff (sec)
1 06/24/2012 00:15:58 -73.20, -8.42 06/24/2012 00:14:51 -73.13, -10.98 82.87 67
2 06/24/2012 01:05:37 73.80, 157.95 06/24/2012 01:05:17 73.80, 157.86 2.99 20
3 06/24/2012 01:55:04 -73.88, -34.58 06/24/2012 01:55:58 -73.86, -34.66 3.29 54
4 06/26/2012 19:50:15 -73.56, 57.29 06/26/2012 19:49:04 -73.49, 56.23 34.26 71
5 06/26/2012 20:39:48 73.85,-135.70 06/26/2012 20:39:36 73.85,-135.60 3.08 12
6 06/26/2012 21:29:15 -73.92, 31.77 06/26/2012 21:30:17 -73.92, 31.88 3.48 62
7 06/29/2012 15:24:30 -73.77, 123.27 06/29/2012 15:23:19 -73.79, 123.33 2.47 71
8 06/29/2012 16:13:59 73.86, -69.28 06/29/2012 16:13:57 73.84, -69.20 3.04 2
9 06/29/2012 17:03:26 -73.93, 98.20 06/29/2012 17:04:38 -73.91, 98.29 3.39 72
10 07/02/2012 10:58:41 -73.80,-170.33 07/02/2012 10:57:40 -73.78,-170.27 2.77 61
11 07/02/2012 11:48:09 73.84, -2.78 07/02/2012 11:48:18 73.83, -2.81 1.11 9
12 07/02/2012 12:37:43 -74.27, 163.89 07/02/2012 12:38:52 -74.25, 165.54 49.82 69
13 07/05/2012 06:32:50 -73.79,-103.85 07/05/2012 06:32:00 -73.77,-103.90 2.90 50
14 07/05/2012 07:22:19 73.88, 63.58 07/05/2012 07:22:37 73.87, 63.68 3.54 18




NCC Satellite Simultaneous Nadir Overpasses (SNOs) Prediction Service
